Regional Weather Roundup
Issued by NWS

Home | Current Version | Previous Version | Graphics & Text | Print | Product List | Glossary On
Versions: 1 2 3 4 5 6 7 8 9 10 11 12 13 14 15 16 17 18 19 20 21 22 23 24 25 26 27 28 29 30 31 32 33 34 35 36 37 38 39 40 41 42 43 44 45 46 47 48 49 50
000
ASUS43 KBIS 212120
RWRND

NORTH DAKOTA REGIONAL WEATHER ROUNDUP
NATIONAL WEATHER SERVICE BISMARCK ND
400 PM CDT SUN SEP 21 2014

NOTE: "FAIR" INDICATES FEW OR NO CLOUDS BELOW 12,000 FEET WITH NO
SIGNIFICANT WEATHER AND/OR OBSTRUCTIONS TO VISIBILITY.


NDZ001>003-009>011-017-212200-
NORTHWEST NORTH DAKOTA

CITY           SKY/WX    TMP DP  RH WIND       PRES   REMARKS
WILLISTON      SUNNY     73  37  27 SE8       30.23F
MINOT          SUNNY     72  39  30 VRB3      30.21F
MINOT AFB      SUNNY     71  39  32 VRB6      30.20F
$$

NDZ018>021-031>035-040>046-212200-
SOUTHWEST NORTH DAKOTA

CITY           SKY/WX    TMP DP  RH WIND       PRES   REMARKS
BISMARCK       SUNNY     74  41  30 NW9       30.24F
DICKINSON      SUNNY     70  37  29 SE5       30.25F
GARRISON         N/A     71  42  35 W6        30.23F
HETTINGER ARPT SUNNY     71  37  28 W3        30.27F
$$

NDZ004>008-012>016-024-026-027-054-212200-
NORTHEAST NORTH DAKOTA

CITY           SKY/WX    TMP DP  RH WIND       PRES   REMARKS
GRAND FORKS    MOSUNNY   63  50  62 NW6       30.20F
GRND FRKS AFB  MOSUNNY   66  51  59 N7        30.21F
DEVILS LAKE    MOSUNNY   66  46  48 CALM      30.20S
$$

NDZ022-023-025-028>030-036>039-047>053-212200-
SOUTHEAST NORTH DAKOTA

CITY           SKY/WX    TMP DP  RH WIND       PRES   REMARKS
FARGO          MOSUNNY   65  50  58 VRB7      30.21F
JAMESTOWN      MOSUNNY   66  48  52 NW7       30.22F
$$



USA.gov is the U.S. government's official web portal to all federal, state and local government web resources and services.